Lancaster, PA

11:44 AM EDT on April 30, 2017 (GMT -0400)
Lancaster

Weather History for KLNS - November, 2012

Change the Weather History Date:

Tuesday, November 20, 2012

  Actual Average Record
Temperature  
Mean Temperature 41 °F -  
Max Temperature 50 °F 53 °F 78 °F (1985)
Min Temperature 32 °F 32 °F 16 °F (1986)
Degree Days  
Heating Degree Days 24    
Moisture  
Dew Point 33 °F    
Average Humidity 74    
Maximum Humidity 88    
Minimum Humidity 57    
Precipitation  
Precipitation 0.00 in - - ()
Sea Level Pressure  
Sea Level Pressure 30.17 in    
Wind  
Wind Speed 1 mph (WNW)    
Max Wind Speed 5 mph    
Max Gust Speed -    
Visibility 8 miles    
Events      
Averages and records for this station are not official NWS values.
T = Trace of Precipitation, MM = Missing Value Source: NWS Daily Summary

Daily Weather History Graph

Daily Weather History Graph

Search for Another Location

Airport or City:

Trip Planner

Search our weather history database for the weather conditions in past years. The results will help you decide how hot, cold, wet, or windy it might be!

Date:

Astronomy

Nov. 20, 2012 Rise Set
Actual Time 6:56 AM EST 4:44 PM EST
Civil Twilight 6:27 AM EST 5:14 PM EST
Nautical Twilight 5:54 AM EST 5:47 PM EST
Astronomical Twilight 5:21 AM EST 6:19 PM EST
Moon 12:29 PM EST (11/20) No Moon Set
Length of Visible Light 10h 46m
Length of Day
9h 47m
Waxing Crescent, 51% of the Moon is Illuminated
Nov 20
Waxing Crescent
Nov 28
Full
Dec 6
Last Quarter
Dec 13
New
Dec 20
First Quarter

Hourly Weather History & Observations

Time (EST) Temp. Windchill Dew Point Humidity Pressure Visibility Wind Dir Wind Speed Gust Speed Precip Events Conditions
12:53 AM 33.1 °F 28.7 °F 28.9 °F 85% 30.23 in 7.0 mi West 4.6 mph - N/A   Clear
1:53 AM 34.0 °F - 30.0 °F 85% 30.22 in 7.0 mi Calm Calm - N/A   Clear
2:53 AM 33.1 °F - 28.9 °F 85% 30.22 in 7.0 mi Calm Calm - N/A   Mostly Cloudy
3:17 AM 33.8 °F 29.6 °F 28.4 °F 81% 30.21 in 7.0 mi WSW 4.6 mph - N/A   Scattered Clouds
3:53 AM 34.0 °F - 28.9 °F 82% 30.20 in 7.0 mi Calm Calm - N/A   Clear
4:53 AM 33.1 °F - 28.9 °F 85% 30.20 in 7.0 mi Calm Calm - N/A   Clear
5:53 AM 32.0 °F - 28.0 °F 85% 30.21 in 6.0 mi Calm Calm - N/A   Clear
6:53 AM 32.0 °F - 28.0 °F 85% 30.20 in 6.0 mi Calm Calm - N/A   Clear
7:53 AM 32.0 °F - 28.9 °F 88% 30.21 in 7.0 mi Calm Calm - N/A   Scattered Clouds
8:53 AM 37.9 °F 34.4 °F 32.0 °F 79% 30.20 in 6.0 mi ENE 4.6 mph - N/A   Haze
9:53 AM 42.1 °F - 35.1 °F 76% 30.20 in 7.0 mi Calm Calm - N/A   Clear
10:53 AM 46.0 °F - 36.0 °F 68% 30.19 in 8.0 mi Calm Calm - N/A   Clear
11:53 AM 48.9 °F - 36.0 °F 61% 30.16 in 9.0 mi Calm Calm - N/A   Clear
12:53 PM 50.0 °F - 35.1 °F 57% 30.14 in 10.0 mi Calm Calm - N/A   Clear
1:53 PM 48.9 °F - 35.1 °F 59% 30.12 in 10.0 mi Calm Calm - N/A   Clear
2:53 PM 50.0 °F - 36.0 °F 59% 30.11 in 10.0 mi Calm Calm - N/A   Clear
3:53 PM 48.9 °F - 35.1 °F 59% 30.12 in 10.0 mi Calm Calm - N/A   Clear
4:53 PM 46.9 °F - 36.0 °F 66% 30.12 in 9.0 mi Calm Calm - N/A   Clear
5:53 PM 45.0 °F - 35.1 °F 68% 30.12 in 9.0 mi Calm Calm - N/A   Clear
6:53 PM 46.0 °F - 34.0 °F 63% 30.14 in 9.0 mi Calm Calm - N/A   Clear
7:53 PM 44.1 °F - 35.1 °F 71% 30.14 in 9.0 mi Calm Calm - N/A   Clear
8:53 PM 44.1 °F - 34.0 °F 68% 30.14 in 9.0 mi Calm Calm - N/A   Clear
9:53 PM 41.0 °F 39.0 °F 34.0 °F 76% 30.15 in 8.0 mi West 3.5 mph - N/A   Clear
10:53 PM 41.0 °F 39.0 °F 33.1 °F 73% 30.15 in 8.0 mi WNW 3.5 mph - N/A   Clear
11:53 PM 37.0 °F - 32.0 °F 82% 30.15 in 7.0 mi Calm Calm - N/A   Clear